[[{"header":{"parameterUnit":"m.s-1","parameterCategory":1,"la1":30.2992,"la2":30.254,"lo1":-89.0895,"lo2":-89.0443,"dy":0.0025,"dx":0.0025,"nx":19,"ny":19,"refTime":"2026-04-30T09:00:00:Z","depth":0,"parameterNumber":2,"parameterNumberName":"U-component_of_WINDS"},"data":[0,0,0,-5.5253,-5.5258,-5.5469,-5.5469,-5.5772,-5.5775,0,0,0,0,0,0,0,0,0,0,0,-5.521,-5.5212,-5.5253,-5.5258,-5.5469,-5.5469,-5.5772,-5.5775,0,0,0,0,0,0,0,0,0,0,0,-5.5208,-5.5212,-5.5215,-5.5259,-5.5468,-5.5469,-5.5771,-5.5601,0,0,0,0,0,0,0,0,0,0,-5.5391,-5.5369,-5.5211,-5.5215,-5.5261,-5.5468,-5.5469,-5.5592,-5.5611,-5.5691,0,-5.5766,0,-5.5775,-5.5798,-5.5799,0,0,0,-5.5245,-5.5353,-5.5392,-5.5216,-5.5263,-5.5468,-5.537,-5.5602,-5.5625,-5.5717,-5.577,-5.578,-5.578,-5.58,-5.5802,-5.6304,-5.6307,0,0,-5.5233,-5.5258,-5.5377,-5.5407,-5.5375,-5.5363,-5.5377,-5.5615,-5.5675,-5.5771,-5.5786,-5.5785,-5.5802,-5.5805,-5.6301,-5.6305,0,0,0,-5.5209,-5.5251,-5.5283,-5.5396,-5.5431,-5.537,-5.5385,-5.5664,-5.5673,-5.579,-5.5789,-5.5804,-5.5808,-5.6298,-5.6302,-5.6476,0,0,0,-5.5201,-5.5236,-5.5279,-5.5297,-5.5427,-5.555,-5.5429,-5.5656,-5.5682,-5.5787,-5.5804,-5.5811,-5.6294,-5.63,-5.6464,-5.6555,0,0,0,-5.519,-5.5235,-5.5272,-5.5298,-5.5389,-5.5545,-5.5567,-5.5661,-5.5683,-5.5799,-5.5812,-5.6292,-5.6299,-5.6453,-5.6537,-5.6696,0,0,0,-5.5185,-5.5423,-5.5275,-5.554,-5.5387,-5.565,-5.5565,-5.576,-5.588,-5.5806,-5.6295,-5.6302,-5.645,-5.6526,-5.6685,-5.6836,-5.6901,0,0,-5.5499,-5.5462,-5.5616,-5.5489,-5.5785,-5.5615,-5.5937,-5.6024,-5.6012,-5.6208,-5.6219,-5.6468,-5.6536,-5.6693,-5.7248,-5.73,0,0,0,-5.5724,-5.5836,-5.5908,-5.6023,-5.6094,-5.6163,-5.6197,-5.6229,-5.6394,-5.6117,-5.6565,-5.6605,-5.6697,-5.6768,-5.6812,-5.689,-5.6335,-5.6334,-5.6333,-5.6209,-5.6179,-5.6433,-5.643,-5.6542,-5.6575,-5.6664,-5.6713,-5.6651,-5.6758,-5.6817,-5.7157,-5.7242,-5.7274,-5.7356,-5.6892,-5.6892,-5.6893,-5.6894,-5.6669,-5.6824,-5.6735,-5.6949,-5.6918,-5.7098,-5.7139,-5.7089,-5.7254,-5.711,-5.7189,-5.7038,-5.7332,-5.7402,-5.6906,-5.6904,-5.6902,-5.6901,-5.69,-5.6986,-5.7055,-5.7089,-5.7252,-5.7381,-5.7368,-5.7531,-5.7495,-5.7463,-5.7541,-5.7602,-5.7599,-5.7594,-5.7572,-5.7573,-5.7574,-5.7575,-5.7576,-5.7577,-5.7303,-5.7335,-5.7476,-5.757,-5.7639,-5.7726,-5.776,-5.7827,-5.7894,-5.7856,-5.7856,-5.7786,-5.7364,-5.7261,-5.7595,-5.7592,-5.7589,-5.7588,-5.7586,-5.7788,-5.7672,-5.789,-5.7959,-5.8067,-5.8199,-5.8149,-5.8291,-5.8341,-5.8423,-5.8335,-5.8027,-5.7987,-5.7952,-5.7867,-5.8338,-5.8338,-5.8338,-5.8338,-5.8058,-5.8033,-5.8247,-5.836,-5.8467,-5.8445,-5.8693,-5.8722,-5.8734,-5.8764,-5.8689,-5.8572,-5.8537,-5.8518,-5.847,-5.839,-5.8984,-5.8985,-5.8985,-5.8356,-5.8339,-5.8558,-5.8565,-5.8647,-5.8718,-5.8951,-5.9087,-5.9075,-5.9011,-5.8787,-5.876,-5.8569,-5.8508,-5.8443,-5.837,-5.8222,0,0]},{"header":{"parameterUnit":"m.s-1","parameterCategory":1,"la1":30.2992,"la2":30.254,"lo1":-89.0895,"lo2":-89.0443,"dy":0.0025,"dx":0.0025,"nx":19,"ny":19,"refTime":"2026-04-30T09:00:00:Z","depth":0,"parameterNumber":3,"parameterNumberName":"V-component_of_WINDS"},"data":[0,0,0,-5.0694,-5.0693,-5.0638,-5.0638,-5.0589,-5.0589,0,0,0,0,0,0,0,0,0,0,0,-5.0725,-5.0725,-5.0694,-5.0693,-5.0638,-5.0638,-5.0589,-5.0589,0,0,0,0,0,0,0,0,0,0,0,-5.0725,-5.0725,-5.0726,-5.0693,-5.0638,-5.0638,-5.0589,-5.0623,0,0,0,0,0,0,0,0,0,0,-5.0672,-5.0716,-5.0725,-5.0726,-5.0693,-5.0638,-5.0638,-5.0624,-5.0621,-5.0624,0,-5.0633,0,-5.061,-5.0587,-5.0587,0,0,0,-5.0681,-5.0719,-5.0691,-5.0726,-5.0692,-5.0639,-5.066,-5.0622,-5.0618,-5.062,-5.0632,-5.0629,-5.0609,-5.0587,-5.0587,-5.0646,-5.0646,0,0,-5.0685,-5.0723,-5.0693,-5.0689,-5.0701,-5.0662,-5.0658,-5.0619,-5.0634,-5.0631,-5.0628,-5.0609,-5.0587,-5.0587,-5.0645,-5.0646,0,0,0,-5.0701,-5.0726,-5.0698,-5.0692,-5.068,-5.066,-5.0656,-5.0636,-5.0624,-5.0627,-5.0608,-5.0587,-5.0587,-5.0644,-5.0645,-5.0722,0,0,0,-5.0702,-5.0735,-5.07,-5.0723,-5.0682,-5.0658,-5.0675,-5.0626,-5.0621,-5.0608,-5.0587,-5.0586,-5.0643,-5.0645,-5.0718,-5.0751,0,0,0,-5.0723,-5.0738,-5.0735,-5.0725,-5.0703,-5.0658,-5.0643,-5.0624,-5.061,-5.0587,-5.0586,-5.0642,-5.0644,-5.0714,-5.0745,-5.0776,0,0,0,-5.0757,-5.0805,-5.0737,-5.0783,-5.0704,-5.0706,-5.0642,-5.0642,-5.0632,-5.0587,-5.0643,-5.0645,-5.0713,-5.0741,-5.0772,-5.0808,-5.0827,0,0,-5.0839,-5.0817,-5.084,-5.0777,-5.0802,-5.0711,-5.0746,-5.07,-5.0663,-5.0653,-5.0654,-5.0719,-5.0745,-5.0775,-5.0922,-5.0938,0,0,0,-5.0879,-5.0897,-5.0895,-5.0887,-5.0853,-5.0825,-5.077,-5.0752,-5.0742,-5.0666,-5.0738,-5.0752,-5.0768,-5.0783,-5.0796,-5.0806,-5.0654,-5.0654,-5.0654,-5.1051,-5.0999,-5.1034,-5.0975,-5.0968,-5.0909,-5.0898,-5.0863,-5.0815,-5.0832,-5.0829,-5.0924,-5.0944,-5.0953,-5.0964,-5.0845,-5.0845,-5.0845,-5.0845,-5.1165,-5.118,-5.1112,-5.1121,-5.1065,-5.1071,-5.1015,-5.098,-5.0976,-5.0924,-5.0935,-5.0882,-5.0972,-5.0978,-5.0851,-5.085,-5.0849,-5.0849,-5.0848,-5.127,-5.1268,-5.1246,-5.1226,-5.1217,-5.1155,-5.1154,-5.1103,-5.1056,-5.1067,-5.1056,-5.1054,-5.1045,-5.1066,-5.1066,-5.1066,-5.1067,-5.1067,-5.1067,-5.1387,-5.1359,-5.1365,-5.1331,-5.1318,-5.1293,-5.1232,-5.1216,-5.1186,-5.1149,-5.1148,-5.1096,-5.0991,-5.0964,-5.1072,-5.1071,-5.107,-5.107,-5.107,-5.1519,-5.1481,-5.149,-5.1476,-5.143,-5.1422,-5.1357,-5.1329,-5.1308,-5.1308,-5.1252,-5.1184,-5.1157,-5.1146,-5.1124,-5.1266,-5.1266,-5.1266,-5.1266,-5.1607,-5.1588,-5.1584,-5.1565,-5.154,-5.1481,-5.1489,-5.1441,-5.1384,-5.1368,-5.134,-5.1306,-5.1297,-5.1275,-5.1262,-5.124,-5.1408,-5.1408,-5.1408,-5.1683,-5.1659,-5.1678,-5.1623,-5.1582,-5.1547,-5.1551,-5.1529,-5.1457,-5.1413,-5.1352,-5.1346,-5.1291,-5.1277,-5.1231,-5.1211,-5.117,0,0]}]]